Flag for U.S.A. Weather past 2 weeks in Acworth, Georgia, U.S.A.

Now
66 °F

Mostly cloudy.


Feels Like: 66 °F
Forecast: 60 / 79 °F
Wind: No wind

Location: Cartersville Airport

Current Time: Apr 26, 2015 at 6:17:55 AM

Latest Report: Apr 26, 2015 at 5:53 AM


Visibility: 10 mi

Pressure: 29.61 "Hg

Humidity: 90%

Dew point: 63 °F

Location of AcworthLocation

Historic Weather in Acworth — Graph

°F

Acworth temperature yesterday

Maximum temperature yesterday: 77 °F (at 3:53 PM)
Minimum temperature yesterday: 56 °F (at 2:53 AM)
Average temperature yesterday: 65 °F

Past Weeks' High & Low Weather Summary

 TemperatureHumidityPressure
High80 °F (Apr 14, 3:53 PM)97% (Apr 18, 7:53 AM)30.25 "Hg (Apr 18, 7:53 AM)
Low39 °F (Apr 22, 6:53 AM)23% (Apr 24, 3:53 PM)29.59 "Hg (Apr 26, 3:53 AM)
Average63 °F75%29.98 "Hg
* Reported Apr 11 4:53 AM — Apr 26 4:53 AM, Acworth, Weather by CustomWeather, © 2015

Note: Actual official high and low records may vary slightly from our data, if they occured in-between our weather recording intervals... More about our weather records

Advertising

Acworth weather history for previous 24 hours

 ConditionsComfort  
Time TempWeatherWind HumidityBarometerVisibility
4:53 AM
Sun, Apr 26
66 °FOvercast.No wind90%29.60 "Hg9 mi
3:53 AM64 °FPassing clouds.No wind94%29.59 "Hg8 mi
2:53 AM63 °FFog.No wind97%29.60 "Hg4 mi
1:53 AM66 °FPassing clouds.5 mph90%29.61 "Hg10 mi
12:53 AM68 °FMostly cloudy.No wind87%29.62 "Hg10 mi
11:53 PM
Sat, Apr 25
67 °FPassing clouds.3 mph87%29.61 "Hg9 mi
10:53 PM68 °FClear.No wind87%29.60 "Hg10 mi
9:53 PM66 °FClear.3 mph93%29.59 "Hg8 mi
8:53 PM68 °FPassing clouds.3 mph90%29.60 "Hg7 mi
7:53 PM71 °FPassing clouds.No wind84%29.61 "Hg9 mi
6:53 PM74 °FSunny.No wind74%29.60 "Hg10 mi
5:53 PM76 °FSunny.No wind69%29.63 "Hg10 mi
4:53 PM77 °FScattered clouds.No wind66%29.65 "Hg10 mi
3:53 PM77 °FScattered clouds.3 mph64%29.66 "Hg10 mi
2:53 PM76 °FMostly cloudy.3 mph67%29.69 "Hg10 mi
1:53 PM74 °FPartly sunny.6 mph69%29.70 "Hg10 mi
12:53 PM71 °FPartly sunny.5 mph76%29.72 "Hg10 mi
11:53 AM67 °FPartly sunny.8 mph81%29.75 "Hg10 mi
10:53 AM64 °FLow clouds.6 mph90%29.78 "Hg10 mi
9:53 AM62 °FLow clouds.3 mph90%29.78 "Hg10 mi
8:53 AM58 °FFog.3 mph93%29.78 "Hg6 mi
7:53 AM57 °FLight rain. Fog.7 mph93%29.82 "Hg5 mi
6:53 AM56 °FRain. Fog.No wind93%29.87 "Hg4 mi
Weather by CustomWeather, © 2015

See weather overviewHow to use our weather pages